Date String (YYYY-MM-DD hh:mm:ss) UTC,Instrument flags,Ambient pressure (hPa),Sample flow (lpm),Bypass flow (lpm),Sample temperature (°C),Ambient temperature (°C),ASC tube jacket temperature (°C),LED temperature (°C),Box temperature (°C),Sample RH (%),Span deviation,Mass concentration (μg/m³),Mass concentration (μg/m³),Mass concentration (μg/m³)
DateTimeUTC,F1_M11,P_M11,Q1_M11,Q2_M11,T1_M11,T2_M11,T3_M11,T4_M11,T5_M11,U1_M11,ZSPAN_M11,X2_M11,X0_M11,X1_M11
2022-12-03 21:00:00,,0827.7,5.01,0.00,23.9,22.7,00.0,32.8,25.7,12.0,0000.0,0003.20,0010.49,0002.27
2022-12-03 21:01:00,,0827.6,5.00,0.00,23.9,22.7,00.0,32.8,25.7,12.6,0000.0,0003.17,0009.88,0002.28
2022-12-03 21:02:00,,0827.6,5.00,0.00,23.9,22.7,00.0,32.8,25.7,12.9,0000.0,0003.02,0009.18,0002.14
2022-12-03 21:03:00,,0827.7,4.98,0.00,23.9,22.7,00.0,32.8,25.8,12.8,0000.0,0002.81,0008.93,0001.98
2022-12-03 21:04:00,,0827.7,5.01,0.00,23.9,22.7,00.0,32.8,25.8,13.0,0000.0,0002.53,0008.22,0001.78
2022-12-03 21:05:00,,0827.7,5.01,0.00,23.9,22.7,00.0,32.8,25.9,12.9,0000.0,0002.16,0006.43,0001.51
2022-12-03 21:06:00,,0827.7,5.00,0.00,23.9,22.7,00.0,32.8,25.9,12.6,0000.0,0001.66,0004.43,0001.16
2022-12-03 21:07:00,,0827.7,5.00,0.00,23.9,22.7,00.0,32.8,25.9,12.6,0000.0,0001.31,0003.92,0000.89
2022-12-03 21:08:00,,0827.8,5.00,0.00,24.0,22.7,00.0,32.8,25.9,12.8,0000.0,0001.32,0004.24,0000.87
2022-12-03 21:09:00,,0827.8,5.00,0.00,24.0,22.8,00.0,32.8,25.9,12.7,0000.0,0001.32,0004.94,0000.87
2022-12-03 21:10:00,,0827.7,5.00,0.00,24.0,22.8,00.0,32.8,25.9,12.7,0000.0,0001.30,0006.66,0000.89
2022-12-03 21:11:00,,0827.7,4.99,0.00,24.0,22.8,00.0,32.8,25.9,12.9,0000.0,0001.18,0006.80,0000.80
2022-12-03 21:12:00,,0827.6,5.00,0.00,24.0,22.8,00.0,32.8,25.9,12.7,0000.0,0001.07,0006.41,0000.69
2022-12-03 21:13:00,,0827.5,5.00,0.00,24.0,22.8,00.0,32.8,25.9,12.7,0000.0,0001.04,0007.04,0000.68
2022-12-03 21:14:00,,0827.5,5.00,0.00,24.0,22.8,00.0,32.8,25.9,12.8,0000.0,0001.06,0007.52,0000.70
2022-12-03 21:15:00,,0827.5,5.00,0.00,24.0,22.8,00.0,32.8,25.8,12.7,0000.0,0001.07,0008.15,0000.70
2022-12-03 21:16:00,,0827.5,5.00,0.00,24.0,22.8,00.0,32.8,25.8,12.7,0000.0,0001.08,0008.24,0000.70
2022-12-03 21:17:00,,0827.7,5.00,0.00,24.0,22.8,00.0,32.9,25.8,12.8,0000.0,0001.11,0008.26,0000.70
2022-12-03 21:18:00,,0827.5,5.01,0.00,24.0,22.8,00.0,32.9,25.9,12.7,0000.0,0001.13,0008.15,0000.71
2022-12-03 21:19:00,,0827.5,5.00,0.00,24.0,22.8,00.0,32.9,25.9,12.6,0000.0,0001.08,0007.88,0000.69
2022-12-03 21:20:00,,0827.6,5.00,0.00,24.0,22.8,00.0,32.9,26.0,12.6,0000.0,0001.07,0007.47,0000.68
2022-12-03 21:21:00,,0827.5,5.00,0.00,24.1,22.9,00.0,32.9,26.0,12.5,0000.0,0001.13,0006.17,0000.71
2022-12-03 21:22:00,,0827.5,5.00,0.00,24.1,22.9,00.0,32.9,25.9,12.4,0000.0,0001.22,0005.85,0000.76
2022-12-03 21:23:00,,0827.5,4.99,0.00,24.1,22.9,00.0,32.9,26.0,12.4,0000.0,0001.33,0006.15,0000.82
2022-12-03 21:24:00,,0827.5,5.00,0.00,24.1,22.9,00.0,32.9,26.0,12.5,0000.0,0001.39,0005.14,0000.87
2022-12-03 21:25:00,,0827.5,5.00,0.00,24.1,23.0,00.0,32.9,26.0,12.5,0000.0,0001.39,0004.02,0000.88
2022-12-03 21:26:00,,0827.5,5.00,0.00,24.1,23.0,00.0,32.9,26.0,12.6,0000.0,0001.49,0003.84,0000.95
2022-12-03 21:27:00,,0827.6,4.99,0.00,24.1,23.0,00.0,32.9,26.0,12.7,0000.0,0001.56,0004.67,0001.00
2022-12-03 21:28:00,,0827.6,4.99,0.00,24.2,23.0,00.0,32.9,26.0,12.6,0000.0,0001.60,0005.04,0001.04
2022-12-03 21:29:00,,0827.6,5.00,0.00,24.2,23.1,00.0,32.9,26.1,12.7,0000.0,0001.59,0005.12,0001.05
2022-12-03 21:30:00,,0827.5,5.01,0.00,24.2,23.1,00.0,33.0,26.1,12.7,0000.0,0001.59,0005.12,0001.06
2022-12-03 21:31:00,,0827.5,5.00,0.00,24.2,23.1,00.0,33.0,26.2,12.8,0000.0,0001.70,0005.34,0001.13
2022-12-03 21:32:00,,0827.6,5.01,0.00,24.2,23.2,00.0,33.0,26.1,12.7,0000.0,0001.86,0005.51,0001.25
2022-12-03 21:33:00,,0827.5,5.01,0.00,24.2,23.2,00.0,33.0,26.2,12.5,0000.0,0001.97,0005.72,0001.34
2022-12-03 21:34:00,,0827.5,5.00,0.00,24.3,23.2,00.0,33.0,26.2,12.5,0000.0,0002.13,0005.95,0001.43
2022-12-03 21:35:00,,0827.5,5.00,0.00,24.3,23.2,00.0,33.0,26.2,12.5,0000.0,0002.16,0006.00,0001.41
2022-12-03 21:36:00,,0827.5,4.99,0.00,24.3,23.2,00.0,33.1,26.2,12.6,0000.0,0002.21,0006.14,0001.42
2022-12-03 21:37:00,,0827.5,5.00,0.00,24.3,23.3,00.0,33.1,26.3,12.5,0000.0,0002.20,0006.22,0001.41
2022-12-03 21:38:00,,0827.6,5.00,0.00,24.3,23.3,00.0,33.1,26.3,12.6,0000.0,0002.22,0005.54,0001.43
2022-12-03 21:39:00,,0827.5,4.99,0.00,24.3,23.3,00.0,33.1,26.3,12.5,0000.0,0002.41,0005.68,0001.60
2022-12-03 21:40:00,,0827.6,5.00,0.00,24.3,23.2,00.0,33.1,26.3,12.4,0000.0,0002.68,0006.33,0001.80
2022-12-03 21:41:00,,0827.5,5.01,0.00,24.3,23.2,00.0,33.1,26.3,12.0,0000.0,0003.00,0007.08,0002.06
2022-12-03 21:42:00,,0827.5,5.01,0.00,24.3,23.2,00.0,33.1,26.3,11.9,0000.0,0003.26,0008.11,0002.32
2022-12-03 21:43:00,,0827.5,4.99,0.00,24.4,23.3,00.0,33.1,26.3,11.6,0000.0,0003.40,0008.35,0002.51
2022-12-03 21:44:00,,0827.5,4.99,0.00,24.4,23.3,00.0,33.2,26.3,11.6,0000.0,0003.63,0008.76,0002.79
2022-12-03 21:45:00,,0827.4,5.00,0.00,24.4,23.3,00.0,33.2,26.3,11.6,0000.0,0003.78,0009.09,0003.02
2022-12-03 21:46:00,,0827.5,4.99,0.00,24.4,23.3,00.0,33.2,26.3,11.5,0000.0,0004.04,0009.61,0003.27
2022-12-03 21:47:00,,0827.5,5.00,0.00,24.4,23.3,00.0,33.2,26.3,11.8,0000.0,0004.30,0010.59,0003.44
2022-12-03 21:48:00,,0827.5,5.00,0.00,24.4,23.3,00.0,33.2,26.3,11.5,0000.0,0004.57,0011.56,0003.65
2022-12-03 21:49:00,,0827.5,5.01,0.00,24.4,23.3,00.0,33.2,26.3,11.4,0000.0,0004.89,0012.74,0003.86
2022-12-03 21:50:00,,0827.6,5.01,0.00,24.4,23.4,00.0,33.2,26.3,11.4,0000.0,0005.04,0013.61,0003.97
2022-12-03 21:51:00,,0827.6,4.99,0.00,24.5,23.4,00.0,33.2,26.4,11.4,0000.0,0005.19,0014.24,0004.09
2022-12-03 21:52:00,,0827.6,5.00,0.00,24.5,23.4,00.0,33.3,26.4,11.3,0000.0,0005.27,0014.86,0004.17
2022-12-03 21:53:00,,0827.5,5.00,0.00,24.5,23.4,00.0,33.3,26.4,11.4,0000.0,0005.31,0015.09,0004.22
2022-12-03 21:54:00,,0827.5,4.99,0.00,24.5,23.4,00.0,33.3,26.5,11.3,0000.0,0005.35,0015.46,0004.26
2022-12-03 21:55:00,,0827.6,5.00,0.00,24.5,23.4,00.0,33.3,26.5,11.2,0000.0,0005.36,0015.55,0004.30
2022-12-03 21:56:00,,0827.7,5.00,0.00,24.5,23.4,00.0,33.3,26.5,11.6,0000.0,0005.30,0016.30,0004.29
2022-12-03 21:57:00,,0827.6,5.00,0.00,24.5,23.4,00.0,33.3,26.5,11.6,0000.0,0005.19,0017.06,0004.23
2022-12-03 21:58:00,,0827.7,5.00,0.00,24.5,23.4,00.0,33.3,26.5,11.5,0000.0,0005.12,0016.53,0004.21
2022-12-03 21:59:00,,0827.7,5.01,0.00,24.5,23.4,00.0,33.4,26.5,11.6,0000.0,0005.07,0016.23,0004.17
